Airfield :
LOGIN :

Register | Disclaimer

   EN    FR    IT 

 










Legend :    VFR   Marginal VFR   IFR   Intensive IFR   Very Intensive IFR
Visi :
Ceiling :
>= 8 km
>= 3000ft
5 to 8 km
1000 to 3000 ft
1500m to 5 km
500 to 1000 ft
800 to 1500m
200 to 500 ft
< 800m
< 200 ft
Symbols :   Thunderstorms  Fog  Heavy snow  Heavy precipitations  Wind > 20 kt
SIGMETs :     Misc.  Thunderstorms  Icing  Turbulence  Mountain Waves  Volcanic Ashes







- Airport Elevation : 218 ft
- IATA code : LBG
- Download approach charts


LFPB - Paris / Le Bourget

CURRENT METAR :
  • 201730Z AUTO VRB03KT 9999 OVC049 24/16 Q1020 NOSIG

EXPIRED METARs :
  • 201700Z AUTO 36003KT 320V060 9999 OVC048 24/15 Q1020 NOSIG
  • 201630Z AUTO 31004KT 270V350 9999 OVC048 24/15 Q1021 NOSIG
  • 201600Z AUTO 29005KT 9999 OVC046 24/15 Q1021 NOSIG
  • 201530Z AUTO 29003KT 240V350 9999 FEW034 OVC043 24/16 Q1021 NOSIG
  • 201500Z AUTO 31003KT 230V360 9999 FEW035 OVC044 24/15 Q1021 NOSIG

TAF TAF LFPB
Valid from the 20 at 18:00 until the 21 at 18:00 UTC


201700Z 2018/2118 34005KT CAVOK
PROB30
TEMPO 2106/2108 BKN004
ATIS : +33 1 48 62 43 92
No reported NOTAMs for that airfield.



MET'MAP, your aeronautical weather chart ! - Copyright ORBIFLY December 2007 - Disclaimer

ORBIFLY MET'MAP TEAM :

Programming & Development : Alexandra Zaïnal
Concept & Development : Baudouin d'Aumeries
Co-Development & Prog : Marc-Olivier Méhu
Technical & hardware support : Manuel Goepfert

Contact : metmap@orbifly.com




SOURCES & CREDITS :

   NOAA